www.pogodaiklimat.ru
ПОГОДА в Темелине
Время
(UTC), дата
01 15.01
02 15.01
03 15.01
04 15.01
05 15.01
06 15.01
07 15.01
08 15.01
09 15.01
10 15.01
11 15.01
12 15.01
13 15.01
14 15.01
15 15.01
16 15.01
17 15.01
18 15.01
19 15.01
20 15.01
21 15.01
22 15.01
23 15.01
00 16.01
01 16.01
02 16.01
03 16.01
04 16.01
05 16.01
06 16.01
07 16.01
08 16.01
09 16.01
10 16.01
11 16.01
12 16.01
13 16.01
14 16.01
15 16.01
16 16.01
17 16.01
18 16.01
19 16.01
20 16.01
21 16.01
22 16.01
23 16.01
00 17.01
01 17.01
02 17.01
03 17.01
04 17.01
05 17.01
06 17.01
07 17.01
08 17.01
09 17.01
10 17.01
11 17.01
12 17.01
13 17.01
14 17.01
15 17.01
16 17.01
17 17.01
18 17.01
19 17.01
20 17.01
21 17.01
22 17.01
23 17.01
00 18.01
01 18.01
02 18.01
03 18.01
04 18.01
05 18.01
06 18.01
07 18.01
08 18.01
09 18.01
10 18.01
11 18.01
12 18.01
13 18.01
14 18.01
15 18.01
16 18.01
17 18.01
18 18.01
19 18.01
20 18.01
21 18.01
22 18.01
23 18.01
00 19.01
01 19.01
02 19.01
03 19.01
04 19.01
05 19.01
06 19.01
07 19.01
08 19.01
09 19.01
10 19.01
11 19.01
12 19.01
13 19.01
14 19.01
15 19.01
16 19.01
17 19.01
18 19.01
19 19.01
20 19.01
21 19.01
22 19.01
23 19.01
00 20.01
01 20.01
02 20.01
03 20.01
04 20.01
05 20.01
06 20.01
07 20.01
08 20.01
09 20.01
10 20.01
11 20.01
12 20.01
13 20.01
14 20.01
15 20.01
16 20.01
17 20.01
18 20.01
19 20.01
20 20.01
21 20.01
22 20.01
23 20.01
00 21.01
01 21.01
02 21.01
03 21.01
04 21.01
05 21.01
06 21.01
07 21.01
08 21.01
09 21.01
10 21.01
11 21.01
12 21.01
13 21.01
14 21.01
15 21.01
16 21.01
17 21.01
18 21.01
19 21.01
20 21.01
21 21.01
22 21.01
23 21.01
00 22.01
01 22.01
Ветер
(напр.,м/с)
Видим. Явления Облачность Т
(С)
Тd
(С)
f
(%)
Тe
(С)
Тes
(С)
Комфортность P
(гПа)
Po
(гПа)
Тmin
(С)
Tmax
(С)
R
(мм)
R24
(мм)
S
(см)
СВ 3 6000 м дымка н/о -3.0 -3.9 93 -8 -8 1024.5 961.2
В 3 10 км н/о -2.9 -4.5 89 -8 -8 1024.4 961.1
В 3 10 км {дымка} н/о -3.0 -4.7 88 -8 -8 1024.2 960.9 0.2
СВ 3 8000 м дымка н/о -3.4 -4.6 91 -9 -9 1024.4 961.0
В 3 8000 м дымка 8/0
[Ci fib]
-3.5 -4.5 93 -9 -9 1024.7 961.3
В 3 8000 м дымка 8/0
[Ci fib]
-3.2 -4.5 91 -9 -9 1024.4 961.1 -3.8 0.2
ЮВ 2 7000 м дымка 8/0
[Ac As Ci fib]
-3.3 -4.4 92 -8 -8 1025.0 961.6
ЮВ 3 7000 м дымка 10/10 150 м
[St]
-2.9 -4.0 92 -8 -8 1025.1 961.8
ЮВ 3 6000 м дымка 10/10 150 м
[St]
-2.4 -3.5 92 -8 -8 1024.9 961.7 0.2
ЮВ 3 8000 м дымка 10/10 150 м
[St]
-2.1 -3.4 91 -7 -7 1024.9 961.8
ЮВ 4 10 км 10/10 180 м
[St]
-1.8 -3.4 89 -8 -8 1024.4 961.4
ЮВ 5 13 км 10/10 180 м
[St]
-1.3 -3.2 87 -8 -8 1024.0 961.1 0.1
В 4 15 км 9/9 240 м
[St]
-1.0 -3.0 86 -7 -7 1023.6 960.8
В 4 20 км 9/9 240 м
[St]
-1.2 -3.1 87 -7 -7 1023.9 961.1
ЮВ 1 15 км 10/10 240 м
[St]
-1.6 -3.3 88 -4 -4 1024.6 961.6 0.1
ЮВ 3 15 км 10/10 180 м
[St]
-1.8 -3.2 90 -7 -7 1024.9 961.9
ЮВ 3 10 км 10/10 150 м
[St]
-2.2 -3.3 92 -7 -7 1025.8 962.6
ЮВ 2 8000 м дымка 10/10 150 м
[St]
-2.3 -3.3 93 -6 -6 1026.6 963.4 -1.0 0.1
Ю 2 5000 м дымка 10/10 90 м
[St]
-2.4 -3.1 95 -7 -7 1027.2 963.9
Ю 2 5000 м дымка 10/10 90 м
[St]
-2.6 -3.3 95 -7 -7 1027.8 964.4
Ю 3 3000 м дымка н/о -2.8 -3.4 96 -8 -8 1028.6 965.1 0.1
Ю 1 2700 м дымка н/о -2.9 -3.5 96 -5 -5 1029.2 965.7
ЮВ 1 3500 м дымка н/о -2.8 -3.4 96 -5 -5 1029.6 966.1
В 1 3200 м дымка н/о -3.2 -3.8 96 -6 -6 1029.9 966.2 0.1
СВ 1 4100 м дымка н/о -3.2 -3.8 96 -6 -6 1030.3 966.6
СВ 3 2700 м дымка н/о -4.0 -4.6 96 -10 -10 1030.9 967.0
СВ 3 1800 м дымка н/о -3.3 -3.8 96 -9 -9 1031.3 967.5 0.1
СВ 3 3100 м дымка н/о -2.9 -3.5 96 -8 -8 1031.4 967.7
СВ 3 3000 м дымка 10/10 1000 м
[Sc]
-2.7 -3.4 95 -8 -8 1032.0 968.3
СВ 2 5000 м дымка 10/10 1000 м
[Sc]
-1.9 -2.7 94 -6 -6 1032.4 968.9 -4.0 0.1
СВ 2 5000 м дымка 10/10 1000 м
[Sc]
-1.6 -2.4 94 -6 -6 1032.9 969.4
СВ 1 4000 м дымка 10/10 1200 м
[Sc]
-1.5 -2.3 94 -4 -4 1033.2 969.7
СВ 2 5000 м дымка 10/10 1300 м
[Sc]
-0.7 -2.0 91 -5 -5 1033.7 970.4 0.1
СВ 1 7000 м слаб. дождь 10/10 1300 м
[Sc]
+1.1 -0.5 89 -1 -1 1033.2 970.3
9000 м в посл. час дождь 8/8 1500 м
[Sc]
+4.3 +0.3 75 1032.3 970.2
СВ 1 12 км {дождь} 9/0 2000 м
[Ac As]
+4.1 +0.8 79 +3 +4 1032.1 970.0 0.1 0.1
СВ 2 15 км 4/0
[Ac trans]
+4.6 +0.9 77 +2 +3 1031.5 969.5
В 1 25 км 5/0
[Ac trans Ci fib]
+5.7 +0.3 68 +5 +5 1031.0 969.3
СВ 2 20 км 4/0 2000 м
[Ac trans Ci fib]
+4.5 +0.5 75 +2 +2 1031.2 969.2 0.1
СВ 3 10 км 4/0
[Ci fib]
+3.1 +0.3 82 -1 -1 1031.6 969.3
В 3 12 км 4/0
[Ci fib]
+3.3 0.0 79 -1 -1 1031.7 969.4
СВ 4 9000 м дымка ясно +1.7 -0.1 88 -3 -3 1032.1 969.4 +6.0 0.1 0.1
В 3 8000 м дымка ясно +1.1 -0.4 90 -3 -3 1032.1 969.3
В 3 11 км ясно +1.9 +0.2 88 -2 -2 1031.5 968.9
В 1 15 км {дымка} н/о +2.1 +0.5 89 0 0 1030.9 968.4 0.1
СВ 2 12 км н/о +1.6 +0.1 90 -2 -2 1030.5 967.9
В 2 10 км н/о +1.1 -0.3 90 -2 -2 1030.2 967.5
СВ 2 6000 м дымка н/о 0.0 -1.1 92 -4 -4 1029.8 966.9 0.1
В 2 5000 м дымка н/о -0.1 -1.0 94 -4 -4 1029.5 966.6
СВ 4 2900 м дымка н/о -1.1 -1.8 95 -7 -7 1028.6 965.5
СВ 1 3100 м дымка н/о -0.7 -1.3 96 -3 -3 1027.5 964.6 0.1
В 2 5000 м дымка н/о -0.2 -1.2 93 -4 -4 1026.6 963.8
ЮВ 6 8000 м дымка 4/0
[Ci fib]
-0.1 -1.7 89 -7 -7 1026.1 963.4
ЮВ 2
{11}
7000 м дымка [диам. изморози 1 мм] 1/0
[Ac lent Ci fib]
-0.3 -1.6 91 -4 -4 1026.0 963.3 -1.4 0.1
ЮВ 5 7000 м дымка 1/0
[Ac lent]
+0.1 -1.2 91 -6 -6 1025.8 963.2
ЮВ 8 12 км ясно +1.0 -1.1 86 -6 -6 1025.2 962.8
ЮВ 4-9
{12}
14 км ясно +1.7 -0.9 83 -3 -2 1024.3 962.1 0.1
ЮВ 5 17 км 1/0
[Ci fib]
+2.8 -0.6 78 -2 -1 1023.4 961.5
ЮВ 4 22 км 1/0
[Ci fib]
+4.1 -0.5 72 -0 +2 1022.4 960.8
ЮВ 3
{12}
20 км 3/0
[Ci fib]
+5.1 +0.1 70 +2 +4 1021.4 960.1 0.1
ЮВ 3 28 км 1/0
[Ci fib]
+5.8 +0.6 69 +3 +4 1020.6 959.5
ЮВ 3 25 км 1/0
[Ci fib]
+5.5 +0.7 71 +2 +3 1020.3 959.2
В 2 19 км 3/0
[Ac trans Ci fib]
+4.0 -0.2 74 +1 +1 1021.1 959.6 0.1
СВ 3 15 км 1/0
[Ci fib]
+0.5 -1.3 88 -4 -4 1022.2 959.9
СВ 2 6000 м дымка ясно -0.7 -1.8 92 -5 -5 1023.1 960.4
СВ 4 4000 м дымка ясно -1.6 -2.3 95 -8 -8 1023.2 960.3 +6.0 0.2
СВ 3 4000 м дымка ясно -2.0 -2.6 96 -7 -7 1023.5 960.5
СВ 2 400 м переохл. туман ясно -1.9 -2.3 97 -6 -6 1023.8 960.8
СВ 3 300 м туман {дымка} н/о -2.0 -2.4 97 -7 -7 1024.2 961.2 0.2
СВ 3 100 м туман {дымка} н/о -2.1 -2.6 96 -7 -7 1024.1 961.1
СВ 3 100 м туман {дымка} н/о -2.0 -2.5 96 -7 -7 1024.0 961.0
СВ 3 400 м туман {дымка} н/о -1.8 -2.3 96 -7 -7 1024.2 961.2 0.1
СВ 2 3100 м в посл. час туман {дымка} н/о -1.6 -2.1 96 -6 -6 1024.8 961.8
СВ 2 2300 м слаб. снег {дымка} н/о -1.3 -1.8 96 -5 -5 1024.8 961.9
СВ 1 3100 м слаб. переохл. дождь (гололёд) {туман} н/о -1.1 -1.5 97 -3 -3 1025.2 962.3 0.1
штиль 0 1700 м слаб. ливневой дождь н/о -0.9 -1.3 97 -2 -2 1025.3 962.5
ЮЗ 2 500 м слаб. переохл. дождь (гололёд) ?/? -0.7 -1.1 97 -5 -5 1025.6 962.8
ЮЗ 2 700 м слаб. переохл. дождь (гололёд) [диам. гололёда 1 мм] ?/? -0.7 -1.0 98 -5 -5 1025.9 963.1 -2.2 2 1.6
З 2 2000 м слаб. переохл. дождь (гололёд) {туман} 10/10 180 м
[Frnb]
-0.6 -0.9 98 -5 -5 1026.4 963.6
Ю 1 2600 м слаб. переохл. дождь (гололёд) 10/10 240 м
[Frnb]
-0.6 -0.9 98 -3 -3 1026.5 963.7
В 1 400 м слаб. переохл. дождь (гололёд) {туман} [диам. гололёда 1 мм] ?/? -0.1 -0.4 98 -2 -2 1026.9 964.2 0.1
З 5 4000 м в посл. час дождь {туман} 10/10 120 м
[Frnb]
+1.9 +1.8 99 -4 -4 1026.8 964.5
З 5 5000 м дымка 10/0
[As op]
+2.5 +1.6 94 -3 -3 1026.4 964.3
З 3 9000 м дымка {дождь, туман} 10/1 540 м
[Sc As op]
+3.0 +1.8 92 -1 -1 1026.2 964.2 0.6 0.1
СЗ 4 15 км 10/1 800 м
[Sc As op]
+3.2 +1.6 89 -2 -1 1026.2 964.2
СЗ 2 20 км 10/4 900 м
[Sc As op]
+3.3 +1.5 88 0 0 1026.1 964.2
З 1 30 км 10/4 1110 м
[Sc Ac As]
+3.1 +1.1 87 +2 +2 1026.3 964.3 0.1
СЗ 3 30 км 10/4 960 м
[Sc Ac As]
+2.9 +0.8 86 -1 -1 1026.7 964.6
З 2 25 км 10/4 1200 м
[Sc Ac As]
+2.6 +0.5 86 -1 -1 1027.2 965.0
З 3 25 км 10/0
[Ac As]
+1.8 +0.5 91 -3 -3 1027.6 965.2 +3.4 0.6 0.2
З 5 30 км 10/0
[Ac As]
+2.0 -0.3 85 -4 -4 1027.6 965.3
З 4 35 км 10/0
[Ac As]
+1.7 -0.9 83 -3 -3 1027.9 965.5
З 2 35 км н/о +1.3 -0.9 85 -2 -2 1027.9 965.4 0.2
З 2 26 км н/о +1.1 -1.0 86 -2 -2 1028.0 965.4
З 1 35 км н/о +0.7 -1.4 86 -1 -1 1028.2 965.5
ЮЗ 3 4200 м дымка н/о -0.2 -0.8 96 -5 -5 1028.7 965.8 0.2
ЮЗ 3 2300 м слаб. снег {дождь, туман} н/о -0.3 -0.6 98 -5 -5 1028.9 966.0
ЮЗ 2 3400 м в посл. час снег {ливн. осадки} н/о -0.4 -0.7 98 -4 -4 1029.3 966.3
З 4 11 км {ливн. осадки, снег} н/о 0.0 -0.3 98 -6 -6 1029.3 966.4 0.2
СЗ 4 28 км н/о +0.9 -1.1 86 -4 -4 1029.4 966.7
СЗ 6 28 км 10/10 870 м
[Sc]
+0.8 -1.1 87 -6 -6 1029.9 967.2
СЗ 5 25 км в посл. час снег 10/10 1020 м
[Sc]
+0.6 -1.0 89 -5 -5 1030.5 967.7 -0.7 0.1 0.7 0
СЗ 4 23 км в посл. час снег {дождь} 10/10 600 м
[Sc]
+0.6 -0.8 90 -5 -5 1031.4 968.5
СВ 2 15 км слаб. ливневой снег 9/9 540 м
[Cu Sc]
+0.4 -0.5 94 -3 -3 1032.2 969.2
С 1 5000 м слаб. снег 10/10 360 м
[Frnb]
+0.6 -0.3 94 -1 -1 1032.9 969.9 0.1
С 1 21 км в посл. час снег 9/9 1080 м
[Sc]
+1.3 -0.2 90 -1 -0 1033.4 970.6
С 5 25 км 9/9 720 м
[Sc]
+1.5 -0.6 86 -4 -4 1033.9 971.1
СВ 2 22 км {ливн. осадки, снег} 9/9 400 м
[Sc]
+1.7 -0.7 84 -2 -1 1034.3 971.5 0.3 0.1
С 3 21 км в посл. час снег 9/9 400 м
[Sc]
+1.6 -0.8 84 -3 -3 1034.8 971.9
З 2 15 км в посл. час снег 8/6 540 м
[Sc Ac trans]
+1.2 0.0 92 -2 -2 1035.5 972.5
СЗ 2 18 км {ливн. осадки} 8/5 1140 м
[Sc Ac trans]
+1.6 -0.2 88 -2 -2 1035.9 973.0 0.2
СЗ 3 18 км в посл. час ливневой снег 9/9 600 м
[Cu Sc]
+1.2 -0.3 90 -3 -3 1037.1 974.0
СЗ 2 22 км 10/10 800 м
[Sc]
+0.9 -0.9 88 -3 -3 1038.1 974.9
СЗ 2 20 км в посл. час ливневой снег 10/10 800 м
[Sc]
+1.2 -0.9 86 -2 -2 1038.9 975.7 +1.9 0.4 0.2
С 4 30 км 10/10 900 м
[Sc]
+1.1 -1.3 84 -4 -4 1039.7 976.4
С 4 12 км слаб. снег 10/10 1020 м
[Sc]
+0.9 -0.9 88 -4 -4 1040.5 977.1
С 3 5000 м слаб. снег {дождь} н/о +0.5 -0.5 93 -4 -4 1041.0 977.5 0.2
С 5 3800 м слаб. снег {дымка} н/о +0.4 -0.4 94 -6 -6 1041.8 978.3
С 5 7000 м слаб. снег {дымка} н/о +0.3 -0.5 94 -6 -6 1042.3 978.7
С 4 2900 м слаб. снег {дождь} н/о +0.3 -0.3 96 -5 -5 1042.9 979.3 0.2 0.2
С 4 6000 м слаб. дождь со снегом н/о +0.2 -0.6 94 -5 -5 1043.6 979.9
С 4 4900 м слаб. дождь со снегом н/о +0.1 -0.5 96 -6 -6 1044.1 980.3
С 3 9000 м слаб. снег {дождь, дымка} н/о 0.0 -0.7 95 -5 -5 1044.1 980.3 0.2
С 3 7000 м слаб. снег {дождь, дымка} н/о 0.0 -0.6 96 -5 -5 1044.3 980.5
С 3 7000 м слаб. снег 10/10 210 м
[Frnb]
0.0 -0.7 95 -5 -5 1044.8 981.0
С 4 9000 м слаб. снег 10/10 400 м
[Frnb]
0.0 -0.6 96 -6 -6 1045.6 981.7 -0.1 0.4 0.8 2
С 3 6000 м слаб. снег 10/10 540 м
[Frnb]
0.0 -0.6 96 -5 -5 1046.3 982.4
С 3 2800 м слаб. снег 10/10 800 м
[Frnb]
+0.2 -0.6 94 -5 -5 1047.0 983.1
СВ 1 11 км в посл. час снег 9/4 750 м
[St Ac trans]
+0.4 -0.6 93 -2 -1 1047.5 983.6 0.2
СВ 1 10 км в посл. час снег 9/4 210 м
[St Ac trans]
+0.7 -4.1 70 -1 0 1047.8 983.9
штиль 0 3500 м дымка 10/10 900 м
[Sc]
+0.6 -0.5 92 -1 -1 1047.9 984.0
СВ 1 19 км {снег} 9/6 210 м
[St Ac trans]
+1.2 -0.9 86 -1 0 1047.7 984.0 0.3 0.2
С 2 25 км 8/6 300 м
[St Ac trans]
+0.9 -1.0 87 -3 -2 1047.7 983.9
ЮВ 1 22 км 9/9 630 м
[Sc]
+1.7 -0.7 84 0 0 1047.4 983.8
В 1 12 км 9/9 360 м
[Sc]
+1.1 -1.0 86 -1 -1 1047.3 983.6 0.2
штиль 0 15 км 10/10 660 м
[Sc]
+0.8 -0.8 89 -0 -0 1047.4 983.6
Ю 1 8000 м дымка 10/10 700 м
[Sc]
+0.7 -0.4 92 -1 -1 1047.7 983.9
ЮЗ 1 5000 м дымка 10/10 660 м
[Sc]
+0.5 -0.5 93 -2 -2 1048.0 984.1 +1.7 0.3 0.2
З 1 4000 м дымка 10/10 700 м
[Sc]
+0.3 -0.4 95 -2 -2 1047.9 984.0
ЮВ 1 8000 м дымка 10/10 630 м
[Sc]
+0.4 -1.0 90 -2 -2 1047.8 983.9
СВ 1 9000 м дымка н/о +0.2 -1.2 90 -2 -2 1047.8 983.8 0.2
СВ 2 800 м туман {дымка} н/о -0.9 -1.3 97 -5 -5 1047.5 983.3
В 3 300 м туман {дымка} н/о -1.3 -1.6 98 -6 -6 1047.4 983.1
В 2 5000 м в посл. час туман {дымка} н/о -1.3 -1.6 98 -5 -5 1047.1 982.8 0.2
ЮЗ 2 100 м туман {дымка} н/о -4.0 -4.7 95 -8 -8 1047.6 982.7
ЮЗ 2 100 м туман {дымка} н/о -3.7 -4.2 96 -8 -8 1046.9 982.1
ЮЗ 3 100 м туман {дымка} н/о -3.1 -3.6 96 -9 -9 1046.2 981.6 0.2
Ю 2 7000 м в посл. час туман {дымка} н/о -2.4 -2.8 97 -7 -7 1045.3 980.9
В 2 10 км 10/10 420 м
[St]
-2.5 -2.9 97 -7 -7 1044.9 980.5
СВ 2 4000 м дымка [диам. изморози 1 мм] 10/10 210 м
[St]
-2.9 -3.4 96 -7 -7 1045.3 980.8 -4.3 0.3 0
В 3 14 км 10/10 150 м
[St]
-2.7 -3.2 96 -8 -8 1045.3 980.8
ЮВ 2 10 км 10/10 150 м
[St]
-2.8 -3.3 96 -7 -7 1045.3 980.8
ЮВ 1 10 км [диам. изморози 1 мм] 10/10 120 м
[St]
-2.8 -3.3 96 -5 -5 1045.3 980.8 0.2
ЮВ 1 12 км 10/10 150 м
[St]
-2.5 -3.2 95 -5 -5 1045.2 980.8
В 1 9000 м дымка 10/10 150 м
[St]
-2.4 -3.1 95 -5 -5 1044.8 980.4
В 1 9000 м дымка [диам. изморози 1 мм] 10/10 120 м
[St]
-2.2 -2.9 95 -5 -5 1044.1 979.8 0.1
В 1 7000 м дымка 10/10 120 м
[St]
-2.2 -2.9 95 -5 -5 1043.4 979.1
ЮЗ 1 3000 м дымка 10/10 90 м
[St]
-2.3 -2.8 96 -5 -5 1042.7 978.5
ЮЗ 2 3000 м дымка [диам. изморози 1 мм] 10/10 60 м
[St]
-2.3 -2.7 97 -6 -6 1042.2 978.0 0.1
ЮЗ 2 3000 м дымка 10/10 90 м
[St]
-2.6 -3.0 97 -7 -7 1042.2 977.9
ЮЗ 3 1100 м дымка 10/10 60 м
[St]
-3.0 -3.4 97 -8 -8 1041.6 977.3
ЮЗ 1 1000 м дымка [диам. изморози 1 мм] 10/10 30 м
[St]
-3.1 -3.5 97 -6 -6 1041.4 977.1 -2.1 0.1
З 1 400 м переохл. туман ?/? -3.2 -3.6 97 -6 -6 1041.4 977.0
ЮЗ 2 1100 м дымка {туман} 10/10 30 м
[St]
-3.6 -4.0 97 -8 -8 1041.0 976.6
С 2 1500 м дымка {туман} н/о -3.5 -4.0 96 -8 -8 1041.0 976.6 0.1
СЗ 2 300 м туман {дымка} н/о -3.8 -4.3 96 -8 -8 1040.6 976.1
З 2 300 м туман {дымка} н/о -3.6 -4.1 96 -8 -8 1039.7 975.3
З 2 200 м туман {дымка} н/о -3.6 -4.1 96 -8 -8 1038.7 974.4 0.1
ЮЗ 2 100 м туман {дымка} н/о -3.9 -4.5 96 -8 -8 1038.1 973.8
Местоположение метеостанции Темелин (Чехия): широта 49.20 долгота 14.33 высота над уровнем моря 507 м.
В архиве по умолчанию представлена погода в Темелине за последнюю неделю. Архивные данные за месяц целиком и за предыдущие месяцы, начиная с января 2011 года, Вы можете получить, выбрав интересующий диапазон дат из раскрывающегося списка и нажав кнопку "Найти!".
*Определитесь, кто Вы:
Внимание! Время в таблицах - всемирное. Для получения местного времени необходимо прибавить поправку, которая равна 1 ч.
Смотрите также архив погоды в соседних городах и на ближайших метеорологических станциях:
Партнеры нашего сайта:      
Пояснения к столбцам:
  • Ветер - указаны скорость ветра в м/с - средняя за 10 мин, порывы в срок и между сроками (в фигурных скобках) и направление, откуда дует ветер: С - северный,
  • СВ - северо-восточный, В - восточный, ЮВ - юго-восточный, Ю - южный, ЮЗ - юго-западный, З - западный, СЗ - северо-западный.
  • Видимость - горизонтальная дальность видимости в метрах или километрах. При видимости от 1 до 10 км при отсутствии осадков обычно наблюдается дымка, при ухудшении видимости до 1 км и менее - туман. В сухую погоду видимость может ухудшаться дымом, пылью или мглою.
  • Явления - указаны атмосферные явления, наблюдавшиеся в срок или в последний час перед сроком; фигурными скобками обозначены явления, наблюдавшиеся между сроками (за 1-3 часа до срока); квадратными скобками обозначены град или гололедные отложения с указанием их диаметра в мм.
  • Облачность - указаны через наклонную черту общая и нижняя облачность в баллах и высота нижней границы облаков в метрах; квадратными скобками обозначены формы облаков: Ci - перистые, Cs - перисто-слоистые, Cc - перисто-кучевые, Ac - высококучевые, As - высокослоистые, Sc - слоисто-кучевые, Ns - слоисто-дождевые, Cu - кучевые, Cb - кучево-дождевые. Подробнее классификацию облаков см. в Атласе облаков (PDF).
  • T - Температура воздуха - температура, измеренная на высоте 2 м над землей.
  • Td - Температура точки росы - температура, при понижении до которой содержащийся в воздухе водяной пар достигнет насыщения.
  • f - Относительная влажность воздуха - влажноcть воздуха, измеренная на высоте 2 м над землей.
  • Te - Эффективная температура - температура, которую ощущает одетый по сезону человек в тени. Характеристика душности погоды. При расчете учитывается влияние влажности воздуха и скорости ветра на теплоощущения человека.
  • Tes - Эффективная температура на солнце - температура, которую ощущает человек, с поправкой на солнечный нагрев. Характеристика знойности погоды. Зависит от высоты солнца над горизонтом, облачности и скорости ветра. Ночью, в пасмурную погоду, а также при ветре 12 м/с и более поправка равна нулю.
  • P - Атмосферное давление - приведенное к уровню моря атмосферное давление.
  • Po - Атмосферное давление - измеренное на уровне метеостанции атмосферное давление.
  • Tmin - Минимальная температура - минимум температуры воздуха на высоте 2 м над землей.
  • Tmax - Максимальная температура - максимум температуры воздуха на высоте 2 м над землей.
  • R - Количество осадков - Количество выпавших осадков за период времени, мм. При наведении курсора мыши на число - период времени, за который выпало указанное количество осадков.
  • R24 - Количество осадков - Количество выпавших осадков за 24 часа, мм.
  • S - Снежный покров - Высота снежного покрова, см. При наведении курсора мыши на число - состояние снежного покрова и степень покрытия местности в баллах.